Location: Eppenbrunn
(49.1158°N, 7.5601°E)
Time: 15:54:03
(UTC+00:00)

IGS 5A - Pass Details

Date: 18 June 2021
Orbit: 583 x 587 km, 97.6° (Epoch: 17 July)

Event Time Altitude Azimuth Distance (km) Brightness Sun altitude
Rises 21:26:24 0° 217° (SW) 2,807 6.7 -12.3°
Reaches altitude 10° 21:29:48 10° 247° (WSW) 1,914 6.2 -12.6°
Maximum altitude 21:31:34 12° 273° (W) 1,765 6.3 -12.7°
Drops below altitude 10° 21:33:20 10° 298° (WNW) 1,922 7.0 -12.9°
Sets 21:36:46 0° 328° (NNW) 2,830 9.0 -13.1°
